Theta_e
317 318 318 311 308 308 312 314 310 310 305 303 302 304 303 300 303 304 301 300 299 301 308 309 311 311 312 310 310 309 309 309 309 310 310 310 310 310 311 312 313 315 316 319 320 320 322 322 323
315 317 313 302 306 307 312 310 311 309 303 300 300 301 300 302 301 300 300 298 300 302 306 308 308 309 309 308 308 307 307 307 307 307 307 307 308 308 308 308 309 311 314 314 316 318 320 321 321
313 313 307 304 303 306 312 310 308 304 301 303 301 299 300 301 300 300 296 298 300 300 302 307 307 307 307 306 306 306 305 304 304 304 304 304 305 305 306 306 307 307 308 311 314 314 315 318 318
314 307 301 306 310 308 310 308 305 303 302 301 299 299 298 298 299 298 295 297 298 297 297 305 305 305 305 304 304 303 303 302 302 302 302 302 302 303 303 303 304 305 306 307 307 312 313 314 316
308 302 305 305 307 305 306 306 304 305 303 302 301 299 298 297 296 294 294 296 299 297 296 298 303 302 302 301 301 301 301 300 299 299 300 300 300 300 300 301 302 304 304 305 305 306 310 312 312
305 302 306 307 306 305 305 304 304 303 302 300 299 298 297 296 294 293 293 295 298 298 294 295 296 298 298 299 299 299 299 298 297 297 297 296 296 297 298 299 300 302 302 303 303 304 305 308 310
305 303 304 302 305 307 305 302 303 302 301 301 297 298 295 295 293 293 293 294 297 297 295 294 294 294 293 295 296 296 296 295 293 292 292 291 290 291 293 293 298 300 300 301 302 303 303 305 306
302 301 303 304 305 308 302 301 300 302 302 298 297 297 296 295 293 292 292 293 294 295 294 294 294 294 294 293 293 292 291 290 290 290 289 289 289 289 289 290 295 297 298 299 300 301 301 302 303
303 304 304 304 304 305 300 302 298 296 298 296 294 295 295 295 293 292 292 293 293 293 294 294 294 294 293 293 293 292 290 289 289 289 289 289 288 288 287 288 291 294 295 296 297 298 298 298 297
306 307 306 303 301 302 300 302 298 299 296 296 293 292 293 293 292 292 291 292 293 293 293 293 293 293 293 293 292 291 290 289 289 288 288 288 287 287 287 287 287 289 292 292 295 295 295 295 296
303 308 304 304 302 300 300 299 298 297 298 295 294 291 291 291 291 291 290 292 293 293 292 292 292 292 291 291 291 290 290 289 289 288 288 288 287 287 286 286 286 287 289 290 291 292 293 293 295
304 301 302 303 302 301 301 298 298 297 299 295 292 291 291 290 290 290 290 292 293 293 292 292 292 291 291 290 290 290 290 289 288 287 287 286 286 285 285 285 285 285 287 288 290 291 292 292 294
303 302 300 300 300 298 299 299 299 298 293 291 291 291 289 289 290 290 291 292 293 293 292 291 291 291 290 290 290 289 289 288 287 286 286 285 285 285 285 285 285 285 285 287 289 290 291 292 293
300 300 301 300 300 300 301 300 299 297 290 290 290 289 288 289 290 290 290 291 293 293 292 291 291 290 290 290 289 289 288 287 286 286 285 285 285 284 284 284 285 285 285 285 287 288 290 291 291
300 302 301 301 301 301 300 302 299 295 290 291 290 289 288 289 290 290 291 291 292 292 292 291 291 290 290 289 289 288 287 286 285 285 284 284 284 284 284 284 284 284 285 285 286 287 289 290 291
300 300 303 302 301 300 300 302 299 292 290 291 289 287 288 288 290 291 291 291 292 292 292 291 291 290 289 289 288 287 286 285 285 284 284 283 283 283 284 284 283 284 284 285 285 286 288 289 291
298 303 301 301 300 300 299 300 297 292 291 291 289 288 288 287 289 290 291 291 292 292 291 291 291 290 289 288 287 287 286 285 284 283 283 283 283 283 283 283 283 284 284 284 284 285 287 288 290
302 301 300 300 300 299 300 299 297 294 291 292 290 289 287 287 288 290 291 290 292 292 291 291 290 289 289 288 287 286 286 284 283 283 283 283 282 282 282 282 283 283 283 284 283 284 286 287 288
298 300 301 299 299 300 299 299 298 295 294 293 291 290 288 288 289 291 291 290 291 291 291 291 290 289 288 287 286 286 285 284 284 283 283 282 281 282 282 281 282 283 283 283 283 284 285 287 287
300 301 301 300 299 299 298 298 297 297 297 296 296 293 291 289 287 289 289 289 291 291 291 290 290 289 288 286 285 285 284 284 283 283 282 281 281 281 281 280 280 282 283 283 282 283 284 286 286
300 301 300 302 299 298 296 297 297 296 295 296 297 296 294 291 290 288 287 289 290 290 290 290 289 288 287 286 285 284 284 283 282 282 282 281 280 280 280 280 280 281 282 282 281 282 283 285 286
302 300 299 300 300 301 296 303 297 297 296 295 296 296 295 292 291 289 288 287 289 290 290 289 289 287 286 285 284 283 282 281 281 280 280 279 278 278 278 279 279 280 281 282 282 281 282 283 285
301 299 298 298 298 300 299 297 298 298 299 298 295 295 295 292 291 289 288 288 289 290 290 289 288 286 285 284 284 283 282 281 280 279 279 279 279 278 277 277 279 280 281 282 282 281 282 283 284
297 298 297 296 297 295 298 298 300 298 300 301 299 294 294 291 290 289 289 288 289 289 289 288 287 285 284 284 283 282 281 280 279 278 278 277 278 278 276 276 278 279 280 281 281 281 282 282 283
298 299 295 298 293 301 295 297 299 299 296 298 299 296 292 291 289 288 287 287 288 288 288 287 286 284 284 283 282 282 280 278 278 277 275 275 276 276 275 276 277 278 280 280 281 280 281 282 282
298 299 301 298 298 300 297 299 301 298 298 295 294 296 291 289 289 288 288 288 287 287 287 286 285 284 283 282 282 281 279 278 277 276 275 275 275 275 274 275 277 278 280 280 281 280 280 282 282
300 300 296 291 284 295 302 301 299 299 296 296 294 293 291 289 288 288 288 288 287 286 287 286 284 283 282 282 281 279 278 277 277 277 275 275 276 275 275 275 276 279 279 280 280 280 281 281 282
298 296 299 294 295 296 299 299 302 302 304 299 294 294 291 288 287 287 287 287 286 287 287 286 284 283 282 281 281 278 278 277 277 276 275 276 276 275 275 275 277 278 279 279 279 279 280 281 281
296 297 296 297 297 298 297 302 298 299 299 302 297 294 291 289 287 287 287 287 286 286 286 285 283 282 281 281 279 277 277 277 277 276 275 275 275 275 275 275 276 278 279 279 279 278 280 280 280
296 297 296 300 297 295 296 298 299 298 298 296 297 295 291 288 287 286 287 285 284 284 284 284 282 281 281 280 278 277 277 277 277 275 274 275 275 275 275 275 276 277 279 279 279 277 279 279 280
Wind_Speed
6 6 6 9 5 6 2 2 3 4 3 3 2 5 8 4 3 3 4 12 12 12 14 19 18 19 20 21 22 23 25 26 27 26 26 27 28 29 29 30 30 30 30 31 30 29 29 29 29
8 4 9 3 5 4 3 2 5 4 6 7 6 3 6 3 2 4 3 9 11 12 14 19 17 19 19 21 22 24 25 27 29 30 30 30 29 29 29 29 28 30 31 30 31 31 30 29 29
14 7 4 4 3 4 5 4 6 4 7 2 4 5 4 2 3 3 4 7 10 14 13 18 17 18 18 20 21 24 27 28 29 30 30 30 30 30 30 31 31 31 30 31 31 29 30 30 30
4 8 5 4 3 0 2 5 6 8 2 3 5 7 3 3 2 5 5 7 10 14 14 16 17 17 18 19 23 25 27 29 29 29 29 30 30 31 32 32 32 32 31 30 30 33 30 31 31
9 4 5 5 2 1 2 4 6 5 4 3 2 5 4 4 11 9 8 9 12 14 16 16 16 16 18 22 25 27 27 27 28 29 30 30 31 31 31 31 32 33 33 33 33 32 32 32 31
4 4 5 3 2 1 2 5 6 2 2 4 5 5 4 11 9 10 10 12 12 14 17 17 17 17 21 22 23 24 25 26 28 28 29 30 31 30 31 30 32 33 34 34 33 33 33 33 32
6 4 4 6 6 4 5 4 6 5 5 3 9 5 3 6 10 11 11 11 12 13 13 15 16 18 22 22 23 24 25 26 27 30 31 31 33 33 33 33 31 33 33 34 32 33 34 34 33
5 5 4 3 6 5 7 4 5 3 3 2 3 5 5 9 14 12 11 12 13 14 14 15 16 17 18 21 23 25 26 28 30 31 32 33 34 35 35 35 30 31 32 32 33 33 34 33 32
3 5 2 7 8 5 6 5 2 2 6 2 3 2 4 25 16 12 11 10 12 13 14 13 15 16 17 18 20 23 25 27 29 30 31 32 34 35 36 36 33 32 33 32 33 34 34 34 32
4 4 8 6 7 6 7 5 9 5 4 1 3 4 17 20 16 11 8 8 10 12 13 13 14 15 16 17 19 22 24 26 27 28 30 32 33 34 34 36 37 37 32 36 33 32 34 33 33
3 3 4 1 4 7 8 5 3 8 4 7 9 10 12 14 12 11 8 8 8 9 10 11 12 13 15 16 18 21 23 25 26 27 30 30 32 33 35 37 38 38 39 39 37 36 35 36 34
4 3 2 2 3 6 9 9 6 5 3 4 11 16 10 11 11 11 10 8 6 6 8 9 10 11 13 15 17 19 22 24 25 26 28 30 32 34 35 36 37 39 40 40 32 33 35 38 35
3 2 4 4 7 7 7 3 4 5 1 7 17 12 9 11 11 10 10 8 6 5 5 7 8 11 13 14 16 18 20 22 22 24 26 28 30 33 35 36 38 38 39 38 31 32 35 35 35
2 5 3 5 4 3 4 1 2 4 6 8 10 10 10 14 15 12 12 10 8 5 3 5 7 9 11 14 15 16 18 20 21 23 25 27 28 31 32 34 36 38 38 37 28 31 33 33 34
2 5 4 5 3 2 4 5 8 6 8 10 9 8 8 14 17 18 16 13 10 6 3 2 5 7 10 12 13 14 16 18 20 22 24 26 28 30 31 32 34 36 37 38 33 32 32 34 34
5 5 2 2 0 0 2 8 3 8 10 10 9 8 9 11 19 17 16 13 12 8 5 2 3 5 7 9 10 11 14 17 19 21 24 26 28 29 30 31 32 34 35 37 35 29 32 35 33
6 2 3 5 5 3 3 7 3 5 8 10 9 10 10 7 14 18 18 16 15 11 6 3 1 3 5 7 7 9 12 15 17 20 23 25 26 28 29 31 32 33 34 36 30 30 29 34 36
6 4 4 5 2 3 3 17 4 5 8 12 10 11 8 9 12 23 21 18 16 13 9 5 1 2 4 5 5 7 10 14 17 20 22 23 25 26 28 29 30 32 33 35 30 28 31 27 33
7 6 5 3 2 5 7 16 11 9 10 13 12 12 12 13 16 25 23 21 18 15 11 6 2 1 3 6 9 8 11 12 17 19 20 21 23 26 28 29 30 31 33 33 27 27 30 30 36
4 4 4 1 3 4 5 16 13 14 15 20 19 17 16 12 9 21 26 24 23 18 13 9 4 1 4 7 9 8 10 9 13 17 19 20 23 24 25 28 29 30 32 34 30 27 26 25 30
2 4 3 2 3 2 6 9 6 6 10 10 16 13 16 19 17 14 22 29 24 20 16 11 7 2 2 4 6 7 7 10 14 22 23 23 22 22 23 24 27 28 30 31 26 25 25 23 26
3 3 5 4 2 3 2 7 5 5 8 10 14 18 16 16 14 15 22 27 30 24 18 13 9 5 2 3 5 8 10 10 14 19 22 23 24 23 22 21 23 25 28 30 29 23 23 23 22
2 3 5 3 4 2 3 2 7 4 7 11 12 15 15 16 17 17 26 31 33 26 21 16 12 8 4 1 4 6 8 10 14 18 20 23 24 23 22 21 21 22 25 27 28 24 24 22 20
10 6 7 5 3 3 5 3 4 5 7 4 2 8 13 13 15 18 26 29 31 26 23 19 14 10 6 3 3 5 8 11 14 18 21 24 24 24 23 22 20 21 23 25 27 21 23 22 21
3 5 3 4 3 6 4 3 10 9 7 6 6 5 9 13 15 15 17 25 31 32 27 21 17 13 9 4 2 4 7 9 11 15 18 21 23 23 24 23 20 21 22 23 25 21 22 22 22
4 3 5 7 3 4 4 7 7 6 5 7 6 4 7 11 13 15 22 28 32 34 30 25 20 16 11 7 3 2 4 6 10 13 15 17 19 20 21 20 19 19 21 23 24 24 20 21 21
6 4 3 7 1 3 5 9 10 9 8 8 7 5 8 9 12 15 21 26 30 33 34 29 23 18 14 9 5 1 2 5 9 11 12 15 17 18 18 19 18 19 20 22 23 25 20 21 22
4 4 3 3 2 4 5 6 9 6 5 3 7 12 9 8 9 11 18 24 28 34 34 28 24 20 15 10 6 4 2 4 8 10 12 14 15 16 18 18 17 18 21 23 23 23 20 21 21
4 2 2 3 4 5 2 6 8 10 10 6 8 8 8 10 11 11 17 22 28 33 34 30 25 22 16 11 8 6 3 3 6 9 10 13 14 15 16 17 15 18 21 24 21 22 20 21 21
2 7 8 5 6 3 2 7 2 8 7 7 8 7 6 7 10 11 18 23 26 31 34 32 27 23 17 12 10 7 4 3 5 8 9 12 13 14 16 16 14 16 20 23 23 26 19 21 21
Wind_Direction
44 42 52 40 56 65 70 203 127 123 83 348 78 116 109 56 54 169 174 7 3 21 33 32 20 20 20 20 21 24 24 23 20 19 15 11 8 4 2 358 354 353 349 349 345 343 340 339 339
49 74 56 77 86 76 274 247 161 152 152 162 79 76 50 81 69 103 121 7 22 35 43 41 29 28 28 29 28 27 25 23 20 19 16 14 11 8 4 359 357 354 351 347 343 343 339 338 334
68 63 74 84 93 146 174 196 142 96 133 156 97 50 112 124 89 101 41 41 38 41 45 45 37 34 36 33 31 28 26 23 20 18 16 14 11 8 6 3 360 354 349 346 344 338 334 335 334
70 32 40 75 77 341 220 144 132 124 151 83 126 76 51 30 101 123 85 60 50 47 46 58 43 39 35 33 31 27 25 22 19 17 15 14 12 9 6 3 0 357 353 346 340 339 338 331 330
50 59 63 78 66 12 33 117 138 141 132 112 159 157 109 73 116 106 82 66 59 53 50 58 47 42 36 34 31 28 24 21 19 17 15 13 12 11 7 3 0 356 352 350 346 339 335 332 329
47 88 69 148 159 69 41 138 136 98 131 144 86 110 155 145 132 108 88 71 71 64 57 56 54 44 39 36 33 29 25 23 22 19 17 15 13 10 8 4 3 358 353 349 346 342 334 330 330
104 75 146 139 155 152 171 118 139 136 139 206 154 117 145 152 132 116 98 84 75 67 61 55 46 38 33 32 30 28 27 25 22 20 18 16 15 13 10 7 1 357 355 350 346 342 338 333 329
102 91 111 174 180 211 168 104 124 169 182 103 176 176 189 182 144 126 112 93 82 71 61 51 42 35 30 25 25 25 25 21 19 18 16 15 14 13 12 9 359 354 353 350 347 343 339 335 331
133 74 168 196 151 194 171 131 102 139 117 75 10 109 159 153 153 139 117 97 82 70 59 46 39 33 30 27 24 22 22 19 16 14 13 12 12 11 10 7 2 357 354 349 348 347 343 339 336
72 117 208 186 175 166 161 147 151 138 126 123 67 77 137 150 160 150 123 100 76 63 55 43 35 32 28 29 22 20 20 19 16 13 11 11 10 10 7 6 5 0 352 352 346 347 348 343 335
16 165 154 177 173 139 134 117 128 129 223 203 185 175 160 151 153 143 125 97 84 68 54 44 36 29 27 25 20 19 17 15 13 11 10 9 8 7 8 7 4 2 357 352 349 345 342 342 337
82 33 357 64 118 111 146 127 171 204 198 265 168 159 149 153 157 149 137 132 122 83 57 43 36 30 27 22 21 18 15 12 11 11 10 9 8 7 7 7 6 3 359 356 346 343 337 338 334
77 115 41 64 91 87 109 130 194 223 1 128 136 149 151 161 160 156 151 153 139 111 68 45 32 29 26 20 19 16 14 13 11 10 12 9 8 7 6 5 4 5 360 357 346 341 339 335 333
56 76 72 31 80 78 113 154 27 193 137 133 151 167 168 170 172 166 173 171 169 142 101 49 33 28 23 22 17 13 11 11 10 12 11 11 9 8 6 5 4 4 1 360 348 339 337 335 332
79 70 47 18 8 103 156 252 228 171 160 166 181 173 177 188 185 186 184 182 176 166 126 67 32 27 22 22 18 14 14 9 11 13 11 12 11 7 7 5 4 3 2 360 351 345 342 340 334
61 50 85 279 119 338 54 264 272 166 159 194 195 191 196 205 197 195 190 187 183 183 170 120 41 26 22 19 18 14 13 12 14 10 12 12 10 8 6 5 5 4 3 2 354 347 342 341 337
16 199 198 307 191 154 170 273 5 161 183 205 205 205 209 201 208 200 194 192 190 188 182 174 82 26 25 18 13 13 15 14 13 14 15 10 8 7 6 6 4 4 5 4 356 350 347 338 339
185 202 222 230 207 119 271 262 263 204 208 220 211 216 208 206 210 201 197 195 192 191 190 193 180 22 18 14 12 11 10 13 14 16 12 7 7 8 6 6 6 4 6 5 357 352 346 342 341
140 155 176 233 190 155 246 269 261 215 218 232 227 220 212 213 212 203 199 195 191 194 194 196 206 2 357 11 10 7 5 5 11 9 4 3 4 3 5 6 7 8 6 5 357 354 350 346 349
124 131 208 191 148 159 280 271 251 219 222 213 213 217 212 204 190 197 197 194 196 195 193 195 192 263 17 20 16 2 350 353 359 0 3 1 0 359 1 3 6 9 7 6 2 357 354 347 351
144 156 187 176 146 175 299 277 252 253 237 215 220 219 212 202 197 190 186 196 195 196 195 192 190 178 59 26 13 6 358 352 350 358 356 357 356 355 354 360 3 7 10 8 0 356 357 344 351
184 157 128 135 123 239 316 282 292 237 261 229 223 217 207 197 198 183 183 191 196 198 193 189 187 180 137 48 19 21 19 5 352 345 349 356 2 358 354 357 2 7 8 10 4 354 354 354 349
171 126 113 94 89 25 301 308 264 40 289 258 219 222 209 194 188 180 187 190 196 193 190 187 185 173 147 85 35 27 13 357 348 349 355 2 1 360 1 358 1 6 9 8 6 359 353 354 353
149 78 56 55 54 359 245 199 262 182 214 273 213 207 196 185 187 184 183 181 187 187 185 185 180 167 168 142 57 25 2 356 352 357 358 3 359 359 2 2 2 5 8 9 5 357 351 351 354
61 87 353 357 10 224 321 244 260 265 226 230 240 191 189 184 181 172 166 168 176 182 183 181 182 170 170 153 94 21 0 357 0 1 358 360 357 1 3 1 4 5 6 8 8 2 355 353 355
197 173 163 200 191 257 23 243 251 228 243 232 251 233 175 178 182 183 177 174 173 179 183 183 180 174 173 164 138 14 2 5 7 4 360 4 1 2 1 3 7 8 9 9 9 8 2 355 357
185 203 152 101 24 63 232 287 285 266 246 226 212 187 194 185 185 181 177 172 171 177 184 185 180 176 175 166 160 150 26 13 13 4 4 9 5 6 3 8 10 13 13 12 11 8 3 360 358
166 158 94 353 171 250 278 281 243 302 270 178 212 221 201 181 180 178 173 171 172 180 185 184 183 179 173 167 175 172 90 24 14 7 9 12 11 10 9 10 14 17 15 16 16 4 2 1 0
133 221 31 142 166 185 216 253 223 234 228 214 230 225 197 190 185 173 173 172 171 178 183 181 179 176 172 173 176 168 123 45 19 13 16 18 15 14 14 12 16 18 17 16 13 2 359 358 359
269 191 173 146 230 256 130 268 269 256 271 243 239 217 190 178 175 168 168 164 166 172 178 181 180 178 176 177 177 168 140 72 34 25 25 25 24 21 21 16 20 21 21 21 10 9 2 0 356